Lumberton, NC

3:33 PM EDT on October 18, 2017 (GMT -0400)
Lumberton Municipal

Weather History for KLBT - July, 2013

Change the Weather History Date:

Saturday, July 13, 2013

  Actual Average Record
Temperature  
Mean Temperature 76 °F 81 °F  
Max Temperature 79 °F 91 °F 101 °F (2011)
Min Temperature 73 °F 71 °F 62 °F (2001)
Degree Days  
Heating Degree Days 0 0  
Month to date heating degree days 0 0  
Since 1 June heating degree days 0 0  
Since 1 July heating degree days 0 0  
Cooling Degree Days 11 16  
Month to date cooling degree days 190 208  
Year to date cooling degree days 783 846  
Since 1 June cooling degree days 591 596  
Growing Degree Days 26 (Base 50)    
Moisture  
Dew Point 74 °F    
Average Humidity 90    
Maximum Humidity 94    
Minimum Humidity 85    
Precipitation  
Precipitation 0.48 in 0.18 in 2.43 in (2000)
Month to date precipitation 5.12 1.91  
Year to date precipitation 30.31 21.32  
Sea Level Pressure  
Sea Level Pressure 30.05 in    
Wind  
Wind Speed 7 mph (East)    
Max Wind Speed 17 mph    
Max Gust Speed 25 mph    
Visibility 7 miles    
Events Rain , Thunderstorm    
T = Trace of Precipitation, MM = Missing Value Source: NWS Daily Summary

Daily Weather History Graph

Daily Weather History Graph

Search for Another Location

Airport or City:

Trip Planner

Search our weather history database for the weather conditions in past years. The results will help you decide how hot, cold, wet, or windy it might be!

Date:

Astronomy

Jul. 13, 2013 Rise Set
Actual Time 6:13 AM EDT 8:30 PM EDT
Civil Twilight 5:44 AM EDT 8:59 PM EDT
Nautical Twilight 5:09 AM EDT 9:34 PM EDT
Astronomical Twilight 4:30 AM EDT 10:12 PM EDT
Moon 11:12 AM EDT (7/13) 11:26 PM EDT (7/13)
Length of Visible Light 15h 14m
Length of Day
14h 16m
Waxing Crescent, 25% of the Moon is Illuminated
Jul 13
Waxing Crescent
Jul 15
First Quarter
Jul 22
Full
Jul 29
Last Quarter
Aug 6
New

Hourly Weather History & Observations

Time (EDT) Temp. Dew Point Humidity Pressure Visibility Wind Dir Wind Speed Gust Speed Precip Events Conditions
12:54 AM 73.0 °F 71.1 °F 93% 29.98 in 10.0 mi NE 5.8 mph - N/A   Mostly Cloudy
1:54 AM 73.0 °F 70.0 °F 90% 30.00 in 10.0 mi NNE 5.8 mph - N/A   Clear
2:54 AM 73.0 °F 70.0 °F 90% 30.00 in 10.0 mi ENE 4.6 mph - N/A   Mostly Cloudy
3:35 AM 73.4 °F 71.6 °F 94% 30.00 in 10.0 mi ENE 3.5 mph - N/A   Mostly Cloudy
3:51 AM 73.4 °F 71.6 °F 94% 30.00 in 9.0 mi NE 3.5 mph - N/A   Mostly Cloudy
3:54 AM 73.0 °F 71.1 °F 93% 30.00 in 9.0 mi NE 3.5 mph - N/A   Mostly Cloudy
4:54 AM 73.0 °F 71.1 °F 93% 30.00 in 8.0 mi ENE 3.5 mph - N/A   Overcast
5:54 AM 73.0 °F 71.1 °F 93% 30.01 in 7.0 mi Calm Calm - N/A   Overcast
6:22 AM 73.4 °F 71.6 °F 94% 30.02 in 8.0 mi ENE 5.8 mph - N/A   Overcast
6:54 AM 73.0 °F 71.1 °F 93% 30.02 in 7.0 mi ENE 5.8 mph - N/A   Overcast
7:02 AM 73.4 °F 71.6 °F 94% 30.03 in 6.0 mi NE 4.6 mph - N/A   Overcast
7:54 AM 73.0 °F 71.1 °F 93% 30.03 in 4.0 mi ENE 5.8 mph - N/A   Overcast
8:54 AM 73.9 °F 71.1 °F 91% 30.06 in 6.0 mi ENE 6.9 mph - N/A   Overcast
9:54 AM 75.0 °F 72.0 °F 90% 30.07 in 7.0 mi ENE 8.1 mph - N/A   Mostly Cloudy
10:26 AM 73.4 °F 71.6 °F 94% 30.08 in 4.0 mi East 5.8 mph - 0.04 in Rain Light Rain
10:38 AM 73.4 °F 71.6 °F 94% 30.08 in 6.0 mi East 6.9 mph - 0.05 in Rain Light Rain
10:54 AM 73.9 °F 72.0 °F 93% 30.06 in 7.0 mi ENE 4.6 mph - 0.06 in Rain Light Rain
11:08 AM 73.4 °F 73.4 °F 100% 30.08 in 4.0 mi Variable 3.5 mph - 0.01 in Rain Light Rain
11:20 AM 75.2 °F 73.4 °F 94% 30.08 in 10.0 mi NE 8.1 mph - 0.01 in   Overcast
11:51 AM 77.0 °F 73.4 °F 89% 30.07 in 10.0 mi ENE 5.8 mph - 0.01 in   Mostly Cloudy
11:54 AM 77.0 °F 73.9 °F 90% 30.06 in 8.0 mi ENE 8.1 mph - 0.01 in Rain Light Rain
12:05 PM 75.2 °F 73.4 °F 94% 30.07 in 3.0 mi ENE 3.5 mph - 0.02 in Rain Rain
12:54 PM 79.0 °F 73.9 °F 84% 30.08 in 10.0 mi NNE 5.8 mph - 0.02 in   Mostly Cloudy
1:24 PM 78.8 °F 73.4 °F 83% 30.07 in 10.0 mi ENE 9.2 mph - N/A   Mostly Cloudy
1:47 PM 78.8 °F 73.4 °F 83% 30.07 in 10.0 mi NE 8.1 mph - N/A   Mostly Cloudy
1:54 PM 78.1 °F 73.9 °F 87% 30.06 in 10.0 mi NE 9.2 mph - N/A   Mostly Cloudy
2:19 PM 77.0 °F 73.4 °F 89% 30.06 in 10.0 mi ENE 10.4 mph - 0.00 in   Mostly Cloudy
2:31 PM 77.0 °F 73.4 °F 89% 30.06 in 6.0 mi ENE 6.9 mph - 0.00 in Rain Light Rain
2:54 PM 77.0 °F 73.9 °F 90% 30.06 in 10.0 mi NE 8.1 mph - 0.01 in   Overcast
3:02 PM 77.0 °F 73.4 °F 89% 30.07 in 10.0 mi ENE 9.2 mph - 0.00 in Rain Light Rain
3:13 PM 75.2 °F 73.4 °F 94% 30.06 in 9.0 mi NE 10.4 mph - 0.00 in Rain Light Rain
3:37 PM 78.8 °F 75.2 °F 89% 30.05 in 8.0 mi ENE 8.1 mph - 0.00 in Rain Light Rain
3:47 PM 78.8 °F 75.2 °F 89% 30.05 in 10.0 mi NE 9.2 mph - 0.00 in Rain Light Rain
3:54 PM 78.1 °F 75.0 °F 90% 30.05 in 10.0 mi ENE 9.2 mph - 0.00 in   Overcast
4:04 PM 78.8 °F 75.2 °F 89% 30.04 in 9.0 mi ENE 8.1 mph - N/A Thunderstorm Overcast
4:12 PM 78.8 °F 75.2 °F 89% 30.04 in 9.0 mi ENE 8.1 mph - 0.00 in Rain , Thunderstorm Light Rain
4:20 PM 78.8 °F 75.2 °F 89% 30.04 in 10.0 mi ENE 9.2 mph - 0.00 in   Overcast
4:32 PM 78.8 °F 75.2 °F 89% 30.04 in 9.0 mi ENE 11.5 mph - 0.00 in Thunderstorm Overcast
4:36 PM 78.8 °F 75.2 °F 89% 30.04 in 2.5 mi ENE 11.5 mph - 0.03 in Rain , Thunderstorm Rain
4:48 PM 78.8 °F 75.2 °F 89% 30.04 in 3.0 mi East 8.1 mph - 0.05 in Rain Rain
4:54 PM 78.1 °F 75.0 °F 90% 30.04 in 3.0 mi East 9.2 mph - 0.06 in Rain Light Rain
5:04 PM 77.0 °F 75.2 °F 94% 30.04 in 1.8 mi ENE 10.4 mph - 0.05 in Rain Heavy Rain
5:07 PM 75.2 °F 73.4 °F 94% 30.05 in 1.0 mi ENE 10.4 mph - 0.10 in Rain Heavy Rain
5:15 PM 75.2 °F 73.4 °F 94% 30.05 in 1.8 mi ENE 8.1 mph - 0.11 in Rain Light Rain
5:17 PM 77.0 °F 75.2 °F 94% 30.05 in 3.0 mi ENE 8.1 mph - 0.11 in Rain Light Rain
5:54 PM 77.0 °F 75.0 °F 94% 30.03 in 10.0 mi ENE 9.2 mph - 0.11 in   Partly Cloudy
6:03 PM 77.0 °F 75.2 °F 94% 30.03 in 2.5 mi East 12.7 mph - 0.02 in Rain Rain
6:06 PM 77.0 °F 75.2 °F 94% 30.03 in 1.5 mi East 13.8 mph 19.6 mph 0.04 in Rain Heavy Rain
6:13 PM 77.0 °F 75.2 °F 94% 30.03 in 2.0 mi East 10.4 mph 19.6 mph 0.04 in Rain Light Rain
6:21 PM 77.0 °F 75.2 °F 94% 30.03 in 10.0 mi East 9.2 mph - 0.04 in   Mostly Cloudy
6:54 PM 78.1 °F 75.0 °F 90% 30.04 in 10.0 mi East 6.9 mph - 0.04 in   Clear
7:07 PM 78.8 °F 75.2 °F 89% 30.04 in 2.5 mi East 8.1 mph - 0.00 in Rain , Thunderstorm Light Rain
7:11 PM 77.0 °F 75.2 °F 94% 30.04 in 1.5 mi East 8.1 mph - 0.01 in Rain , Thunderstorm Light Rain
7:19 PM 77.0 °F 75.2 °F 94% 30.04 in 0.8 mi East 5.8 mph - 0.03 in Rain , Thunderstorm Rain
7:24 PM 77.0 °F 75.2 °F 94% 30.04 in 1.0 mi East 6.9 mph - 0.04 in Rain , Thunderstorm Rain
7:29 PM 77.0 °F 75.2 °F 94% 30.05 in 1.5 mi ESE 9.2 mph - 0.06 in Rain Light Rain
7:33 PM 77.0 °F 75.2 °F 94% 30.05 in 1.0 mi SE 13.8 mph 17.3 mph 0.12 in Rain Heavy Rain
7:35 PM 77.0 °F 75.2 °F 94% 30.05 in 0.8 mi SE 12.7 mph 17.3 mph 0.15 in Rain Heavy Rain
7:42 PM 77.0 °F 75.2 °F 94% 30.06 in 1.2 mi SSE 12.7 mph - 0.15 in Rain Light Rain
7:44 PM 77.0 °F 75.2 °F 94% 30.06 in 2.5 mi SSE 12.7 mph - 0.15 in Rain Light Rain
7:51 PM 77.0 °F 75.2 °F 94% 30.07 in 6.0 mi SE 13.8 mph - 0.16 in Rain Light Rain
7:54 PM 75.9 °F 75.0 °F 97% 30.06 in 5.0 mi SE 18.4 mph 25.3 mph 0.16 in Rain Light Rain
7:59 PM 75.2 °F 73.4 °F 94% 30.07 in 4.0 mi SE 11.5 mph 25.3 mph 0.00 in Rain Light Rain
8:08 PM 75.2 °F 73.4 °F 94% 30.08 in 10.0 mi SE 12.7 mph - 0.01 in Rain Light Rain
8:28 PM 75.2 °F 73.4 °F 94% 30.08 in 10.0 mi SE 9.2 mph - 0.01 in   Mostly Cloudy
8:38 PM 75.2 °F 73.4 °F 94% 30.09 in 10.0 mi SE 6.9 mph - 0.01 in   Mostly Cloudy
8:54 PM 75.0 °F 73.9 °F 96% 30.08 in 10.0 mi SE 6.9 mph - 0.01 in   Mostly Cloudy
9:54 PM 75.0 °F 73.9 °F 96% 30.11 in 10.0 mi ESE 6.9 mph - N/A   Mostly Cloudy
10:01 PM 75.2 °F 73.4 °F 94% 30.12 in 10.0 mi ESE 6.9 mph - N/A   Scattered Clouds
10:20 PM 75.2 °F 73.4 °F 94% 30.13 in 10.0 mi ESE 6.9 mph - N/A   Mostly Cloudy
10:54 PM 75.0 °F 73.9 °F 96% 30.12 in 10.0 mi ESE 8.1 mph - N/A   Mostly Cloudy
11:08 PM 75.2 °F 73.4 °F 94% 30.12 in 10.0 mi ESE 9.2 mph - N/A   Partly Cloudy
11:47 PM 75.2 °F 73.4 °F 94% 30.13 in 10.0 mi ESE 8.1 mph - N/A   Mostly Cloudy
11:54 PM 75.0 °F 73.0 °F 94% 30.13 in 10.0 mi ESE 6.9 mph - N/A   Mostly Cloudy